sat.trackr.live / text

‹ back to catalog

STARLINK-11649 [DTC]

NORAD 64069 · 2025-107F

PAYLOAD ACTIVE UNKNOWN

§ Identity

Operator
Country
US
Launch date
2025-05-21
Launch site
AFETR
Launch vehicle
Mass (kg)
RCS (m²)

Purposes: comms

External: N2YO · Heavens-Above · Gunter

§ Orbital elements

Epoch: 2026-09-20T14:06:15.877728Z

Period
91.67 min
Inclination
42.9982°
Eccentricity
0.0000800
Mean motion
15.70932408 rev/d
Perigee alt
355.7 km
Apogee alt
356.8 km
Semi-major
6,734.4 km
B*
9.3474e-4
RAAN
4.0594°
Arg perigee
220.4915°
Mean anomaly
139.5893°
Rev number
7,794

§ Raw data

STARLINK-11649 [DTC]1 64069U 25107F   26263.58768377  .00121734  00000+0  93474-3 0  99972 64069  42.9982   4.0594 0000800 220.4915 139.5893 15.70932408 77948

JSON: /api/v1/satellites/64069 · /tle

For live sub-satellite position, see the globe view (requires WebGL).

§ Visibility from observer

Set your observer location to see the next 7 days of passes ≥ 10°. The values pass through the URL so the page stays shareable.

No JS? Fill the form by hand. The geolocation button needs JavaScript.